Time,TemperatureF,DewpointF,PressureIn,WindDirection,WindDirectionDegrees,WindSpeedMPH,WindSpeedGustMPH,Humidity,HourlyPrecipIn,Conditions,Clouds,dailyrainin,SoftwareType,DateUTC
2013-07-15 00:01:00,60.1,46.7,29.72,NW,315,0.2,0.7,61,0.00,,,0.00,WUHU216HW,2013-07-15 07:01:00,
2013-07-15 00:06:00,60.1,46.3,29.72,North,0,0.4,0.7,60,0.00,,,0.00,WUHU216HW,2013-07-15 07:06:00,
2013-07-15 00:11:00,60.1,46.7,29.72,North,0,0.0,0.4,61,0.00,,,0.00,WUHU216HW,2013-07-15 07:11:00,
2013-07-15 00:16:00,60.1,46.7,29.72,North,0,0.0,0.4,61,0.00,,,0.00,WUHU216HW,2013-07-15 07:16:00,
2013-07-15 00:21:00,60.1,46.7,29.72,North,0,0.0,0.2,61,0.00,,,0.00,WUHU216HW,2013-07-15 07:21:00,
2013-07-15 00:26:00,60.1,47.1,29.72,North,0,0.0,0.0,62,0.00,,,0.00,WUHU216HW,2013-07-15 07:26:00,
2013-07-15 00:31:00,60.1,47.1,29.72,North,0,0.0,0.0,62,0.00,,,0.00,WUHU216HW,2013-07-15 07:31:00,
2013-07-15 00:36:00,60.1,47.1,29.72,SSE,158,0.0,0.0,62,0.00,,,0.00,WUHU216HW,2013-07-15 07:36:00,
2013-07-15 00:41:00,60.1,47.5,29.72,SSE,158,0.2,0.2,63,0.00,,,0.00,WUHU216HW,2013-07-15 07:41:00,
2013-07-15 00:46:00,60.1,47.1,29.72,NNE,23,0.2,0.7,62,0.00,,,0.00,WUHU216HW,2013-07-15 07:46:00,
2013-07-15 00:51:00,60.1,47.5,29.72,ENE,68,0.0,0.7,63,0.00,,,0.00,WUHU216HW,2013-07-15 07:51:00,
2013-07-15 00:56:00,59.9,47.4,29.72,NE,45,0.0,0.4,63,0.00,,,0.00,WUHU216HW,2013-07-15 07:56:00,
2013-07-15 01:01:00,59.9,47.4,29.72,NW,315,0.0,0.4,63,0.00,,,0.00,WUHU216HW,2013-07-15 08:01:00,
2013-07-15 01:06:00,59.8,47.2,29.72,NW,315,0.0,0.4,63,0.00,,,0.00,WUHU216HW,2013-07-15 08:06:00,
2013-07-15 01:11:00,59.8,47.2,29.72,NNE,23,0.0,0.0,63,0.00,,,0.00,WUHU216HW,2013-07-15 08:11:00,
2013-07-15 01:16:00,59.6,47.0,29.72,NNE,23,0.0,0.0,63,0.00,,,0.00,WUHU216HW,2013-07-15 08:16:00,
2013-07-15 01:21:00,59.6,47.0,29.72,NNE,23,0.0,0.0,63,0.00,,,0.00,WUHU216HW,2013-07-15 08:21:00,
2013-07-15 01:26:00,59.4,47.2,29.72,NNE,23,0.0,0.0,64,0.00,,,0.00,WUHU216HW,2013-07-15 08:26:00,
2013-07-15 01:31:00,59.2,47.0,29.72,NW,315,0.2,0.2,64,0.00,,,0.00,WUHU216HW,2013-07-15 08:31:00,
2013-07-15 01:36:00,59.0,47.3,29.72,North,0,0.0,0.4,65,0.00,,,0.00,WUHU216HW,2013-07-15 08:36:00,
2013-07-15 01:41:00,58.9,47.1,29.72,North,0,0.4,0.4,65,0.00,,,0.00,WUHU216HW,2013-07-15 08:41:00,
2013-07-15 01:46:00,58.7,47.4,29.72,North,0,0.0,0.4,66,0.00,,,0.00,WUHU216HW,2013-07-15 08:46:00,
2013-07-15 01:51:00,58.7,47.4,29.72,North,0,0.0,0.2,66,0.00,,,0.00,WUHU216HW,2013-07-15 08:51:00,
2013-07-15 01:56:00,58.5,47.5,29.72,North,0,0.4,0.4,67,0.00,,,0.00,WUHU216HW,2013-07-15 08:56:00,
2013-07-15 02:01:00,58.3,47.3,29.72,North,0,0.0,0.4,67,0.00,,,0.00,WUHU216HW,2013-07-15 09:01:00,
2013-07-15 02:06:00,58.1,47.3,29.72,ENE,68,0.0,0.4,67,0.00,,,0.00,WUHU216HW,2013-07-15 09:06:00,
2013-07-15 02:11:00,58.0,47.4,29.72,ENE,68,0.0,0.2,68,0.00,,,0.00,WUHU216HW,2013-07-15 09:11:00,
2013-07-15 02:16:00,57.8,47.3,29.72,ENE,68,0.0,0.0,68,0.00,,,0.00,WUHU216HW,2013-07-15 09:16:00,
2013-07-15 02:21:00,57.6,47.1,29.72,ENE,68,0.0,0.0,68,0.00,,,0.00,WUHU216HW,2013-07-15 09:21:00,
2013-07-15 02:26:00,57.4,46.9,29.72,ENE,68,0.0,0.0,68,0.00,,,0.00,WUHU216HW,2013-07-15 09:26:00,
2013-07-15 02:31:00,57.2,46.7,29.72,ENE,68,0.0,0.0,68,0.00,,,0.00,WUHU216HW,2013-07-15 09:31:00,
2013-07-15 02:36:00,57.2,46.7,29.72,ENE,68,0.0,0.0,68,0.00,,,0.00,WUHU216HW,2013-07-15 09:36:00,
2013-07-15 02:41:00,57.1,46.5,29.72,ENE,68,0.0,0.0,68,0.00,,,0.00,WUHU216HW,2013-07-15 09:41:00,
2013-07-15 02:46:00,56.9,46.5,29.72,ENE,68,0.0,0.0,68,0.00,,,0.00,WUHU216HW,2013-07-15 09:46:00,
2013-07-15 02:51:00,56.7,46.6,29.72,ENE,68,0.0,0.0,69,0.00,,,0.00,WUHU216HW,2013-07-15 09:51:00,
2013-07-15 02:56:00,56.5,46.4,29.72,ENE,68,0.0,0.0,69,0.00,,,0.00,WUHU216HW,2013-07-15 09:56:00,
2013-07-15 03:01:00,56.5,46.4,29.72,ENE,68,0.0,0.0,69,0.00,,,0.00,WUHU216HW,2013-07-15 10:01:00,
2013-07-15 03:06:00,56.3,46.3,29.72,ENE,68,0.0,0.0,69,0.00,,,0.00,WUHU216HW,2013-07-15 10:06:00,
2013-07-15 03:11:00,56.2,46.5,29.72,ENE,68,0.0,0.0,70,0.00,,,0.00,WUHU216HW,2013-07-15 10:11:00,
2013-07-15 03:16:00,55.8,46.3,29.72,ENE,68,0.0,0.0,70,0.00,,,0.00,WUHU216HW,2013-07-15 10:16:00,
2013-07-15 03:21:00,55.8,46.3,29.72,ENE,68,0.0,0.0,70,0.00,,,0.00,WUHU216HW,2013-07-15 10:21:00,
2013-07-15 03:26:00,55.6,46.5,29.72,ENE,68,0.0,0.0,71,0.00,,,0.00,WUHU216HW,2013-07-15 10:26:00,
2013-07-15 03:31:00,55.6,46.5,29.72,ENE,68,0.0,0.0,71,0.00,,,0.00,WUHU216HW,2013-07-15 10:31:00,
2013-07-15 03:36:00,55.4,46.3,29.72,ENE,68,0.0,0.0,71,0.00,,,0.00,WUHU216HW,2013-07-15 10:36:00,
2013-07-15 03:41:00,55.4,46.3,29.72,ENE,68,0.0,0.0,71,0.00,,,0.00,WUHU216HW,2013-07-15 10:41:00,
2013-07-15 03:46:00,55.1,46.3,29.72,ENE,68,0.0,0.0,72,0.00,,,0.00,WUHU216HW,2013-07-15 10:46:00,
2013-07-15 03:51:00,55.1,46.3,29.72,ENE,68,0.0,0.0,72,0.00,,,0.00,WUHU216HW,2013-07-15 10:51:00,
2013-07-15 03:56:00,55.1,46.3,29.72,ENE,68,0.0,0.0,72,0.00,,,0.00,WUHU216HW,2013-07-15 10:56:00,
2013-07-15 04:01:00,54.9,46.5,29.72,ENE,68,0.0,0.0,73,0.00,,,0.00,WUHU216HW,2013-07-15 11:01:00,
2013-07-15 04:06:00,54.7,46.3,29.72,ENE,68,0.0,0.0,73,0.00,,,0.00,WUHU216HW,2013-07-15 11:06:00,
2013-07-15 04:11:00,54.5,46.1,29.72,ENE,68,0.0,0.0,73,0.00,,,0.00,WUHU216HW,2013-07-15 11:11:00,
2013-07-15 04:16:00,54.4,45.9,29.72,ENE,68,0.0,0.0,73,0.00,,,0.00,WUHU216HW,2013-07-15 11:16:00,
2013-07-15 04:21:00,54.4,46.3,29.72,ENE,68,0.0,0.0,74,0.00,,,0.00,WUHU216HW,2013-07-15 11:21:00,
2013-07-15 04:26:00,54.2,46.1,29.72,ENE,68,0.0,0.0,74,0.00,,,0.00,WUHU216HW,2013-07-15 11:26:00,
2013-07-15 04:31:00,54.0,45.9,29.72,ENE,68,0.0,0.0,74,0.00,,,0.00,WUHU216HW,2013-07-15 11:31:00,
2013-07-15 04:36:00,53.8,46.1,29.72,ENE,68,0.0,0.0,75,0.00,,,0.00,WUHU216HW,2013-07-15 11:36:00,
2013-07-15 04:41:00,53.8,46.1,29.72,ENE,68,0.0,0.0,75,0.00,,,0.00,WUHU216HW,2013-07-15 11:41:00,
2013-07-15 04:46:00,53.6,45.9,29.72,ENE,68,0.0,0.0,75,0.00,,,0.00,WUHU216HW,2013-07-15 11:46:00,
2013-07-15 04:51:00,53.5,45.7,29.72,ENE,68,0.0,0.0,75,0.00,,,0.00,WUHU216HW,2013-07-15 11:51:00,
2013-07-15 04:56:00,53.5,45.7,29.72,ENE,68,0.0,0.0,75,0.00,,,0.00,WUHU216HW,2013-07-15 11:56:00,
2013-07-15 05:01:00,53.5,45.7,29.72,ENE,68,0.0,0.0,75,0.00,,,0.00,WUHU216HW,2013-07-15 12:01:00,
2013-07-15 05:06:00,53.1,45.4,29.72,ENE,68,0.0,0.0,75,0.00,,,0.00,WUHU216HW,2013-07-15 12:06:00,
2013-07-15 05:11:00,52.9,45.5,29.73,ENE,68,0.0,0.0,76,0.00,,,0.00,WUHU216HW,2013-07-15 12:11:00,
2013-07-15 05:16:00,52.9,45.5,29.73,ENE,68,0.0,0.0,76,0.00,,,0.00,WUHU216HW,2013-07-15 12:16:00,
2013-07-15 05:21:00,52.9,45.9,29.73,ENE,68,0.0,0.0,77,0.00,,,0.00,WUHU216HW,2013-07-15 12:21:00,
2013-07-15 05:26:00,52.7,46.4,29.73,ENE,68,0.0,0.0,79,0.00,,,0.00,WUHU216HW,2013-07-15 12:26:00,
2013-07-15 05:31:00,52.9,47.3,29.72,ENE,68,0.0,0.0,81,0.00,,,0.00,WUHU216HW,2013-07-15 12:31:00,
2013-07-15 05:36:00,52.9,47.6,29.73,ENE,68,0.0,0.0,82,0.00,,,0.00,WUHU216HW,2013-07-15 12:36:00,
2013-07-15 05:41:00,52.9,47.6,29.73,ENE,68,0.0,0.0,82,0.00,,,0.00,WUHU216HW,2013-07-15 12:41:00,
2013-07-15 05:46:00,52.9,47.9,29.73,ENE,68,0.0,0.0,83,0.00,,,0.00,WUHU216HW,2013-07-15 12:46:00,
2013-07-15 05:51:00,52.9,48.3,29.73,ENE,68,0.0,0.0,84,0.00,,,0.00,WUHU216HW,2013-07-15 12:51:00,
2013-07-15 05:56:00,52.9,48.5,29.73,ENE,68,0.0,0.0,85,0.00,,,0.00,WUHU216HW,2013-07-15 12:56:00,
2013-07-15 06:01:00,53.1,48.7,29.73,ENE,68,0.0,0.0,85,0.00,,,0.00,WUHU216HW,2013-07-15 13:01:00,
2013-07-15 06:06:00,53.1,48.7,29.73,ENE,68,0.0,0.0,85,0.00,,,0.00,WUHU216HW,2013-07-15 13:06:00,
2013-07-15 06:11:00,53.1,48.4,29.73,ENE,68,0.0,0.2,84,0.00,,,0.00,WUHU216HW,2013-07-15 13:11:00,
2013-07-15 06:16:00,53.3,48.9,29.73,ENE,68,0.0,0.2,85,0.00,,,0.00,WUHU216HW,2013-07-15 13:16:00,
2013-07-15 06:21:00,53.3,48.6,29.73,ENE,68,0.2,0.2,84,0.00,,,0.00,WUHU216HW,2013-07-15 13:21:00,
2013-07-15 06:26:00,53.3,48.2,29.73,ENE,68,0.0,0.2,83,0.00,,,0.00,WUHU216HW,2013-07-15 13:26:00,
2013-07-15 06:31:00,53.5,48.4,29.73,ENE,68,0.0,0.0,83,0.00,,,0.00,WUHU216HW,2013-07-15 13:31:00,
2013-07-15 06:36:00,53.5,48.2,29.73,ENE,68,0.0,0.2,82,0.00,,,0.00,WUHU216HW,2013-07-15 13:36:00,
2013-07-15 06:41:00,53.6,48.3,29.73,ENE,68,0.4,0.4,82,0.00,,,0.00,WUHU216HW,2013-07-15 13:41:00,
2013-07-15 06:46:00,53.6,48.0,29.73,East,90,0.0,0.4,81,0.00,,,0.00,WUHU216HW,2013-07-15 13:46:00,
2013-07-15 06:51:00,53.8,48.2,29.73,NNE,23,0.2,0.4,81,0.00,,,0.00,WUHU216HW,2013-07-15 13:51:00,
2013-07-15 06:56:00,54.0,48.3,29.74,NNE,23,0.0,0.2,81,0.00,,,0.00,WUHU216HW,2013-07-15 13:56:00,
2013-07-15 07:01:00,54.0,48.1,29.73,NNE,23,0.0,0.2,80,0.00,,,0.00,WUHU216HW,2013-07-15 14:01:00,
2013-07-15 07:06:00,54.4,48.3,29.73,NNE,23,0.0,0.2,80,0.00,,,0.00,WUHU216HW,2013-07-15 14:06:00,
2013-07-15 07:11:00,54.7,48.7,29.73,NNE,23,0.4,0.4,80,0.00,,,0.00,WUHU216HW,2013-07-15 14:11:00,
2013-07-15 07:16:00,54.9,48.5,29.73,ESE,113,0.0,0.4,79,0.00,,,0.00,WUHU216HW,2013-07-15 14:16:00,
2013-07-15 07:21:00,55.1,49.0,29.73,ESE,113,0.0,0.4,80,0.00,,,0.00,WUHU216HW,2013-07-15 14:21:00,
2013-07-15 07:26:00,55.3,48.8,29.73,NNE,23,0.4,0.4,79,0.00,,,0.00,WUHU216HW,2013-07-15 14:26:00,
2013-07-15 07:31:00,55.4,48.6,29.73,North,0,0.0,0.4,78,0.00,,,0.00,WUHU216HW,2013-07-15 14:31:00,
2013-07-15 07:36:00,55.8,49.3,29.73,NNE,23,0.0,0.4,79,0.00,,,0.00,WUHU216HW,2013-07-15 14:36:00,
2013-07-15 07:41:00,56.0,49.5,29.73,ENE,68,0.0,0.4,79,0.00,,,0.00,WUHU216HW,2013-07-15 14:41:00,
2013-07-15 07:46:00,56.2,49.7,29.73,SE,135,0.0,0.4,79,0.00,,,0.00,WUHU216HW,2013-07-15 14:46:00,
2013-07-15 07:51:00,56.5,50.0,29.74,SE,135,0.0,0.4,79,0.00,,,0.00,WUHU216HW,2013-07-15 14:51:00,
2013-07-15 07:56:00,57.1,50.2,29.73,NNE,23,0.4,0.7,78,0.00,,,0.00,WUHU216HW,2013-07-15 14:56:00,
2013-07-15 08:01:00,57.6,50.8,29.73,NE,45,0.0,0.7,78,0.00,,,0.00,WUHU216HW,2013-07-15 15:01:00,
2013-07-15 08:06:00,58.3,51.1,29.73,ENE,68,0.0,0.4,77,0.00,,,0.00,WUHU216HW,2013-07-15 15:06:00,
2013-07-15 08:11:00,60.1,52.6,29.73,WNW,293,0.0,0.7,76,0.00,,,0.00,WUHU216HW,2013-07-15 15:11:00,
2013-07-15 08:17:00,63.0,54.5,29.73,NNE,23,0.0,0.7,74,0.00,,,0.00,WUHU216HW,2013-07-15 15:17:00,
2013-07-15 08:22:00,65.5,54.6,29.73,NE,45,0.2,2.7,68,0.00,,,0.00,WUHU216HW,2013-07-15 15:22:00,
2013-07-15 08:27:00,66.6,54.8,29.73,NNE,23,0.4,2.7,66,0.00,,,0.00,WUHU216HW,2013-07-15 15:27:00,
2013-07-15 08:32:00,67.3,54.7,29.73,NNE,23,0.0,1.1,64,0.00,,,0.00,WUHU216HW,2013-07-15 15:32:00,
2013-07-15 08:37:00,67.3,54.7,29.73,NE,45,0.4,1.8,64,0.00,,,0.00,WUHU216HW,2013-07-15 15:37:00,
2013-07-15 08:42:00,67.1,54.9,29.73,WSW,248,0.2,1.8,65,0.00,,,0.00,WUHU216HW,2013-07-15 15:42:00,
2013-07-15 08:47:00,67.1,54.9,29.73,West,270,0.2,1.8,65,0.00,,,0.00,WUHU216HW,2013-07-15 15:47:00,
2013-07-15 08:52:00,67.3,55.1,29.73,NNW,338,0.7,1.8,65,0.00,,,0.00,WUHU216HW,2013-07-15 15:52:00,
2013-07-15 08:57:00,67.3,55.1,29.73,North,0,0.9,3.4,65,0.00,,,0.00,WUHU216HW,2013-07-15 15:57:00,
2013-07-15 09:02:00,67.3,55.1,29.73,NW,315,0.4,3.4,65,0.00,,,0.00,WUHU216HW,2013-07-15 16:02:00,
2013-07-15 09:08:00,67.1,55.4,29.73,North,0,0.4,2.9,66,0.00,,,0.00,WUHU216HW,2013-07-15 16:08:00,
2013-07-15 09:13:00,67.1,55.4,29.73,WNW,293,0.7,1.8,66,0.00,,,0.00,WUHU216HW,2013-07-15 16:13:00,
2013-07-15 09:18:00,67.0,55.2,29.73,NNE,23,0.4,2.2,66,0.00,,,0.00,WUHU216HW,2013-07-15 16:18:00,
2013-07-15 09:23:00,67.3,56.0,29.73,SW,225,0.4,2.2,67,0.00,,,0.00,WUHU216HW,2013-07-15 16:23:00,
2013-07-15 09:28:00,67.9,56.1,29.72,North,0,0.4,2.7,66,0.00,,,0.00,WUHU216HW,2013-07-15 16:28:00,
2013-07-15 09:33:00,67.9,55.6,29.73,WNW,293,0.2,3.6,65,0.00,,,0.00,WUHU216HW,2013-07-15 16:33:00,
2013-07-15 09:38:00,67.5,55.3,29.73,NNE,23,0.9,3.6,65,0.00,,,0.00,WUHU216HW,2013-07-15 16:38:00,
2013-07-15 09:43:00,67.7,55.9,29.72,NW,315,0.9,1.8,66,0.00,,,0.00,WUHU216HW,2013-07-15 16:43:00,
2013-07-15 09:48:00,67.5,55.7,29.72,NNE,23,0.4,2.7,66,0.00,,,0.00,WUHU216HW,2013-07-15 16:48:00,
2013-07-15 09:53:00,68.0,56.3,29.72,East,90,2.7,2.7,66,0.00,,,0.00,WUHU216HW,2013-07-15 16:53:00,
2013-07-15 09:58:00,68.8,56.5,29.72,SSW,203,0.4,3.8,65,0.00,,,0.00,WUHU216HW,2013-07-15 16:58:00,
2013-07-15 10:03:00,68.9,56.3,29.72,SSW,203,0.0,2.2,64,0.00,,,0.00,WUHU216HW,2013-07-15 17:03:00,
2013-07-15 10:09:00,69.3,56.6,29.72,ESE,113,0.2,1.8,64,0.00,,,0.00,WUHU216HW,2013-07-15 17:09:00,
2013-07-15 10:14:00,69.7,56.5,29.72,NNW,338,0.7,2.2,63,0.00,,,0.00,WUHU216HW,2013-07-15 17:14:00,
2013-07-15 10:19:00,69.8,56.3,29.72,NW,315,0.4,2.2,62,0.00,,,0.00,WUHU216HW,2013-07-15 17:19:00,
2013-07-15 10:24:00,69.8,55.9,29.72,North,0,0.9,1.6,61,0.00,,,0.00,WUHU216HW,2013-07-15 17:24:00,
2013-07-15 10:29:00,69.7,55.3,29.72,North,0,1.1,3.4,60,0.00,,,0.00,WUHU216HW,2013-07-15 17:29:00,
2013-07-15 10:34:00,69.8,55.4,29.72,ESE,113,0.9,3.4,60,0.00,,,0.00,WUHU216HW,2013-07-15 17:34:00,
2013-07-15 10:39:00,70.2,55.8,29.72,NNE,23,0.4,2.5,60,0.00,,,0.00,WUHU216HW,2013-07-15 17:39:00,
2013-07-15 10:44:00,70.6,55.6,29.72,NNE,23,1.8,1.8,59,0.00,,,0.00,WUHU216HW,2013-07-15 17:44:00,
2013-07-15 10:49:00,70.9,55.5,29.71,East,90,0.9,1.8,58,0.00,,,0.00,WUHU216HW,2013-07-15 17:49:00,
2013-07-15 10:54:00,71.3,55.3,29.71,ENE,68,0.4,1.8,57,0.00,,,0.00,WUHU216HW,2013-07-15 17:54:00,
2013-07-15 10:59:00,71.3,54.7,29.71,NNW,338,0.7,1.8,56,0.00,,,0.00,WUHU216HW,2013-07-15 17:59:00,
2013-07-15 11:04:00,71.3,54.7,29.71,SW,225,0.2,2.2,56,0.00,,,0.00,WUHU216HW,2013-07-15 18:04:00,
2013-07-15 11:09:00,71.3,54.2,29.71,NNE,23,0.2,2.9,55,0.00,,,0.00,WUHU216HW,2013-07-15 18:09:00,
2013-07-15 11:14:00,71.5,54.4,29.71,North,0,0.4,2.9,55,0.00,,,0.00,WUHU216HW,2013-07-15 18:14:00,
2013-07-15 11:20:00,71.6,54.5,29.71,NNE,23,0.4,2.9,55,0.00,,,0.00,WUHU216HW,2013-07-15 18:20:00,
2013-07-15 11:25:00,71.6,53.6,29.71,NW,315,1.8,2.9,53,0.00,,,0.00,WUHU216HW,2013-07-15 18:25:00,
2013-07-15 11:30:00,71.6,53.6,29.71,North,0,1.6,2.9,53,0.00,,,0.00,WUHU216HW,2013-07-15 18:30:00,
2013-07-15 11:35:00,71.6,53.6,29.71,NE,45,2.9,2.9,53,0.00,,,0.00,WUHU216HW,2013-07-15 18:35:00,
2013-07-15 11:40:00,71.6,53.0,29.71,NNW,338,0.2,2.9,52,0.00,,,0.00,WUHU216HW,2013-07-15 18:40:00,
2013-07-15 11:45:00,72.0,53.8,29.71,North,0,0.0,2.2,53,0.00,,,0.00,WUHU216HW,2013-07-15 18:45:00,
2013-07-15 11:51:00,72.5,53.4,29.70,ENE,68,0.2,2.2,51,0.00,,,0.00,WUHU216HW,2013-07-15 18:51:00,
2013-07-15 11:56:00,72.9,52.6,29.70,NNE,23,1.8,2.0,49,0.00,,,0.00,WUHU216HW,2013-07-15 18:56:00,
2013-07-15 12:01:00,73.1,52.8,29.71,North,0,0.2,1.8,49,0.00,,,0.00,WUHU216HW,2013-07-15 19:01:00,
2013-07-15 12:07:00,73.3,52.9,29.70,NW,315,1.1,2.9,49,0.00,,,0.00,WUHU216HW,2013-07-15 19:07:00,
2013-07-15 12:12:00,73.6,53.2,29.70,NNE,23,0.7,2.9,49,0.00,,,0.00,WUHU216HW,2013-07-15 19:12:00,
2013-07-15 12:17:00,73.8,53.4,29.70,NNE,23,0.4,2.2,49,0.00,,,0.00,WUHU216HW,2013-07-15 19:17:00,
2013-07-15 12:22:00,74.3,53.4,29.70,North,0,0.4,4.0,48,0.00,,,0.00,WUHU216HW,2013-07-15 19:22:00,
2013-07-15 12:28:00,74.9,53.8,29.69,SW,225,1.8,4.0,48,0.00,,,0.00,WUHU216HW,2013-07-15 19:28:00,
2013-07-15 12:33:00,75.2,54.2,29.70,NNW,338,0.4,2.2,48,0.00,,,0.00,WUHU216HW,2013-07-15 19:33:00,
2013-07-15 12:38:00,75.4,53.7,29.69,NE,45,0.9,4.3,47,0.00,,,0.00,WUHU216HW,2013-07-15 19:38:00,
2013-07-15 12:43:00,75.6,53.9,29.69,WNW,293,2.5,4.3,47,0.00,,,0.00,WUHU216HW,2013-07-15 19:43:00,
2013-07-15 12:48:00,75.8,54.7,29.69,North,0,1.1,3.1,48,0.00,,,0.00,WUHU216HW,2013-07-15 19:48:00,
2013-07-15 12:53:00,76.5,54.1,29.69,North,0,0.4,3.6,46,0.00,,,0.00,WUHU216HW,2013-07-15 19:53:00,
2013-07-15 12:58:00,76.7,53.6,29.69,SSE,158,0.7,3.6,45,0.00,,,0.00,WUHU216HW,2013-07-15 19:58:00,
2013-07-15 13:04:00,76.7,53.6,29.69,SE,135,1.3,2.9,45,0.00,,,0.00,WUHU216HW,2013-07-15 20:04:00,
2013-07-15 13:09:00,76.9,54.5,29.69,NNW,338,0.2,2.2,46,0.00,,,0.00,WUHU216HW,2013-07-15 20:09:00,
2013-07-15 13:14:00,77.4,54.4,29.69,WNW,293,0.4,2.2,45,0.00,,,0.00,WUHU216HW,2013-07-15 20:14:00,
2013-07-15 13:19:00,77.4,53.1,29.69,ESE,113,0.9,3.1,43,0.00,,,0.00,WUHU216HW,2013-07-15 20:19:00,
2013-07-15 13:24:00,77.4,53.7,29.69,NW,315,0.7,3.1,44,0.00,,,0.00,WUHU216HW,2013-07-15 20:24:00,
2013-07-15 13:29:00,77.9,53.0,29.68,North,0,0.7,2.5,42,0.00,,,0.00,WUHU216HW,2013-07-15 20:29:00,
2013-07-15 13:34:00,77.9,53.0,29.68,NW,315,0.4,2.5,42,0.00,,,0.00,WUHU216HW,2013-07-15 20:34:00,
2013-07-15 13:39:00,78.1,53.1,29.68,WNW,293,0.2,2.9,42,0.00,,,0.00,WUHU216HW,2013-07-15 20:39:00,
2013-07-15 13:45:00,78.3,52.1,29.68,NNW,338,3.1,4.0,40,0.00,,,0.00,WUHU216HW,2013-07-15 20:45:00,
2013-07-15 13:50:00,78.5,52.2,29.68,NNW,338,1.3,4.0,40,0.00,,,0.00,WUHU216HW,2013-07-15 20:50:00,
2013-07-15 13:55:00,78.7,51.7,29.68,NW,315,1.3,4.0,39,0.00,,,0.00,WUHU216HW,2013-07-15 20:55:00,
2013-07-15 14:00:00,78.5,52.8,29.67,NNE,23,0.2,4.0,41,0.00,,,0.00,WUHU216HW,2013-07-15 21:00:00,
2013-07-15 14:05:00,78.5,52.8,29.67,NNW,338,1.6,3.8,41,0.00,,,0.00,WUHU216HW,2013-07-15 21:05:00,
2013-07-15 14:10:00,78.7,53.0,29.67,ENE,68,0.9,3.8,41,0.00,,,0.00,WUHU216HW,2013-07-15 21:10:00,
2013-07-15 14:15:00,78.8,51.8,29.67,NW,315,1.1,2.0,39,0.00,,,0.00,WUHU216HW,2013-07-15 21:15:00,
2013-07-15 14:20:00,78.7,51.7,29.66,North,0,2.2,3.4,39,0.00,,,0.00,WUHU216HW,2013-07-15 21:20:00,
2013-07-15 14:25:00,78.7,53.0,29.66,North,0,0.7,3.4,41,0.00,,,0.00,WUHU216HW,2013-07-15 21:25:00,
2013-07-15 14:30:00,78.8,52.6,29.66,North,0,0.7,3.4,40,0.00,,,0.00,WUHU216HW,2013-07-15 21:30:00,
2013-07-15 14:36:00,79.4,53.0,29.66,NNE,23,0.4,3.4,40,0.00,,,0.00,WUHU216HW,2013-07-15 21:36:00,
2013-07-15 14:41:00,79.2,51.3,29.66,NNE,23,2.5,4.7,38,0.00,,,0.00,WUHU216HW,2013-07-15 21:41:00,
2013-07-15 14:47:00,79.0,51.9,29.66,NE,45,2.5,5.1,39,0.00,,,0.00,WUHU216HW,2013-07-15 21:47:00,
2013-07-15 14:52:00,79.0,52.8,29.66,NNW,338,0.9,2.7,40,0.00,,,0.00,WUHU216HW,2013-07-15 21:52:00,
2013-07-15 14:57:00,79.4,52.3,29.65,WNW,293,0.9,1.8,39,0.00,,,0.00,WUHU216HW,2013-07-15 21:57:00,
2013-07-15 15:02:00,79.6,50.9,29.65,NW,315,1.6,2.5,37,0.00,,,0.00,WUHU216HW,2013-07-15 22:02:00,
2013-07-15 15:08:00,79.6,52.5,29.65,NW,315,1.8,2.5,39,0.00,,,0.00,WUHU216HW,2013-07-15 22:08:00,
2013-07-15 15:13:00,79.7,51.0,29.64,WNW,293,0.9,2.7,37,0.00,,,0.00,WUHU216HW,2013-07-15 22:13:00,
2013-07-15 15:18:00,79.7,51.0,29.64,NW,315,1.1,2.7,37,0.00,,,0.00,WUHU216HW,2013-07-15 22:18:00,
2013-07-15 15:23:00,79.4,50.8,29.64,NE,45,1.3,3.4,37,0.00,,,0.00,WUHU216HW,2013-07-15 22:23:00,
2013-07-15 15:28:00,79.6,50.9,29.64,NW,315,0.4,3.4,37,0.00,,,0.00,WUHU216HW,2013-07-15 22:28:00,
2013-07-15 15:33:00,79.6,50.9,29.64,WNW,293,0.4,3.1,37,0.00,,,0.00,WUHU216HW,2013-07-15 22:33:00,
2013-07-15 15:38:00,79.6,50.9,29.64,West,270,1.6,2.7,37,0.00,,,0.00,WUHU216HW,2013-07-15 22:38:00,
2013-07-15 15:43:00,79.0,50.4,29.64,NE,45,1.6,2.7,37,0.00,,,0.00,WUHU216HW,2013-07-15 22:43:00,
2013-07-15 15:48:00,79.2,50.6,29.63,NNW,338,0.7,3.1,37,0.00,,,0.00,WUHU216HW,2013-07-15 22:48:00,
2013-07-15 15:53:00,79.2,50.6,29.64,NW,315,0.7,3.1,37,0.00,,,0.00,WUHU216HW,2013-07-15 22:53:00,
2013-07-15 15:58:00,79.0,51.2,29.63,North,0,0.9,3.6,38,0.00,,,0.00,WUHU216HW,2013-07-15 22:58:00,
2013-07-15 16:03:00,79.6,50.9,29.63,ESE,113,1.6,3.6,37,0.00,,,0.00,WUHU216HW,2013-07-15 23:03:00,
2013-07-15 16:08:00,79.9,51.2,29.64,NNW,338,1.8,2.7,37,0.00,,,0.00,WUHU216HW,2013-07-15 23:08:00,
2013-07-15 16:13:00,79.6,51.7,29.63,NNW,338,1.3,2.7,38,0.00,,,0.00,WUHU216HW,2013-07-15 23:13:00,
2013-07-15 16:18:00,79.4,50.8,29.63,North,0,2.2,2.5,37,0.00,,,0.00,WUHU216HW,2013-07-15 23:18:00,
2013-07-15 16:23:00,79.6,51.7,29.63,North,0,0.2,2.5,38,0.00,,,0.00,WUHU216HW,2013-07-15 23:23:00,
2013-07-15 16:28:00,79.6,51.7,29.63,East,90,3.4,3.4,38,0.00,,,0.00,WUHU216HW,2013-07-15 23:28:00,
2013-07-15 16:34:00,79.7,51.9,29.62,NNE,23,0.4,4.0,38,0.00,,,0.00,WUHU216HW,2013-07-15 23:34:00,
2013-07-15 16:39:00,79.6,50.9,29.62,North,0,0.4,4.5,37,0.00,,,0.00,WUHU216HW,2013-07-15 23:39:00,
2013-07-15 16:44:00,79.9,52.0,29.62,WNW,293,1.1,4.5,38,0.00,,,0.00,WUHU216HW,2013-07-15 23:44:00,
2013-07-15 16:49:00,79.9,52.7,29.62,ENE,68,0.0,3.4,39,0.00,,,0.00,WUHU216HW,2013-07-15 23:49:00,
2013-07-15 16:54:00,80.3,52.3,29.62,NE,45,0.4,2.5,38,0.00,,,0.00,WUHU216HW,2013-07-15 23:54:00,
2013-07-15 16:59:00,80.3,52.3,29.62,NW,315,0.7,3.4,38,0.00,,,0.00,WUHU216HW,2013-07-15 23:59:00,
2013-07-15 17:04:00,79.7,51.9,29.61,North,0,0.7,4.0,38,0.00,,,0.00,WUHU216HW,2013-07-16 00:04:00,
2013-07-15 17:09:00,79.7,52.6,29.61,NE,45,0.4,4.0,39,0.00,,,0.00,WUHU216HW,2013-07-16 00:09:00,
2013-07-15 17:14:00,79.7,53.4,29.61,SSW,203,0.0,4.0,40,0.00,,,0.00,WUHU216HW,2013-07-16 00:14:00,
2013-07-15 17:19:00,79.9,53.6,29.61,NNE,23,0.9,4.0,40,0.00,,,0.00,WUHU216HW,2013-07-16 00:19:00,
2013-07-15 17:25:00,80.1,53.7,29.61,SE,135,0.4,4.0,40,0.00,,,0.00,WUHU216HW,2013-07-16 00:25:00,
2013-07-15 17:30:00,80.1,52.9,29.61,NNW,338,0.4,4.0,39,0.00,,,0.00,WUHU216HW,2013-07-16 00:30:00,
2013-07-15 17:35:00,79.7,52.6,29.61,NNE,23,2.0,2.9,39,0.00,,,0.00,WUHU216HW,2013-07-16 00:35:00,
2013-07-15 17:40:00,79.6,53.2,29.61,North,0,1.6,2.5,40,0.00,,,0.00,WUHU216HW,2013-07-16 00:40:00,
2013-07-15 17:45:00,79.6,53.2,29.61,North,0,0.2,2.0,40,0.00,,,0.00,WUHU216HW,2013-07-16 00:45:00,
2013-07-15 17:50:00,79.6,53.2,29.60,NW,315,1.1,2.5,40,0.00,,,0.00,WUHU216HW,2013-07-16 00:50:00,
2013-07-15 17:55:00,79.6,53.2,29.60,West,270,1.1,2.5,40,0.00,,,0.00,WUHU216HW,2013-07-16 00:55:00,
2013-07-15 18:00:00,79.6,52.5,29.60,NW,315,1.1,4.0,39,0.00,,,0.00,WUHU216HW,2013-07-16 01:00:00,
2013-07-15 18:05:00,79.4,53.0,29.60,NW,315,0.4,4.0,40,0.00,,,0.00,WUHU216HW,2013-07-16 01:05:00,
2013-07-15 18:10:00,79.2,52.9,29.60,SSE,158,0.7,1.6,40,0.00,,,0.00,WUHU216HW,2013-07-16 01:10:00,
2013-07-15 18:15:00,79.2,52.1,29.60,NW,315,0.7,1.8,39,0.00,,,0.00,WUHU216HW,2013-07-16 01:15:00,
2013-07-15 18:20:00,78.8,51.8,29.60,NNE,23,0.7,3.1,39,0.00,,,0.00,WUHU216HW,2013-07-16 01:20:00,
2013-07-15 18:26:00,78.5,52.2,29.59,NNW,338,0.4,3.1,40,0.00,,,0.00,WUHU216HW,2013-07-16 01:26:00,
2013-07-15 18:31:00,78.5,52.2,29.59,NNE,23,0.2,2.2,40,0.00,,,0.00,WUHU216HW,2013-07-16 01:31:00,
2013-07-15 18:36:00,78.3,52.1,29.59,NNE,23,0.4,2.5,40,0.00,,,0.00,WUHU216HW,2013-07-16 01:36:00,
2013-07-15 18:41:00,78.1,51.9,29.59,NNW,338,0.2,2.5,40,0.00,,,0.00,WUHU216HW,2013-07-16 01:41:00,
2013-07-15 18:46:00,78.1,51.9,29.59,NW,315,0.2,1.8,40,0.00,,,0.00,WUHU216HW,2013-07-16 01:46:00,
2013-07-15 18:51:00,77.8,51.6,29.59,NNW,338,0.2,3.1,40,0.00,,,0.00,WUHU216HW,2013-07-16 01:51:00,
2013-07-15 18:56:00,77.6,51.4,29.59,East,90,0.9,3.6,40,0.00,,,0.00,WUHU216HW,2013-07-16 01:56:00,
2013-07-15 19:01:00,77.6,51.4,29.59,SSW,203,0.4,3.6,40,0.00,,,0.00,WUHU216HW,2013-07-16 02:01:00,
2013-07-15 19:06:00,77.2,51.1,29.59,NNW,338,0.7,2.2,40,0.00,,,0.00,WUHU216HW,2013-07-16 02:06:00,
2013-07-15 19:11:00,76.9,50.8,29.59,ENE,68,2.5,2.5,40,0.00,,,0.00,WUHU216HW,2013-07-16 02:11:00,
2013-07-15 19:16:00,76.7,50.6,29.59,WNW,293,0.2,2.5,40,0.00,,,0.00,WUHU216HW,2013-07-16 02:16:00,
2013-07-15 19:21:00,76.3,50.3,29.59,NNE,23,0.4,2.5,40,0.00,,,0.00,WUHU216HW,2013-07-16 02:21:00,
2013-07-15 19:26:00,76.1,50.1,29.59,NNW,338,0.9,2.2,40,0.00,,,0.00,WUHU216HW,2013-07-16 02:26:00,
2013-07-15 19:32:00,75.8,50.4,29.59,SE,135,0.0,2.5,41,0.00,,,0.00,WUHU216HW,2013-07-16 02:32:00,
2013-07-15 19:37:00,75.6,50.2,29.59,NNW,338,0.9,2.5,41,0.00,,,0.00,WUHU216HW,2013-07-16 02:37:00,
2013-07-15 19:42:00,75.4,50.7,29.59,NE,45,0.4,1.1,42,0.00,,,0.00,WUHU216HW,2013-07-16 02:42:00,
2013-07-15 19:47:00,75.2,50.6,29.59,North,0,0.7,1.8,42,0.00,,,0.00,WUHU216HW,2013-07-16 02:47:00,
2013-07-15 19:52:00,75.1,49.8,29.59,NNW,338,0.0,2.0,41,0.00,,,0.00,WUHU216HW,2013-07-16 02:52:00,
2013-07-15 19:57:00,74.7,50.0,29.59,ENE,68,0.2,2.0,42,0.00,,,0.00,WUHU216HW,2013-07-16 02:57:00,
2013-07-15 20:02:00,74.5,49.9,29.59,ESE,113,0.4,2.2,42,0.00,,,0.00,WUHU216HW,2013-07-16 03:02:00,
2013-07-15 20:07:00,74.3,49.2,29.59,NNW,338,0.0,2.2,41,0.00,,,0.00,WUHU216HW,2013-07-16 03:07:00,
2013-07-15 20:12:00,74.2,49.6,29.59,North,0,0.7,2.0,42,0.00,,,0.00,WUHU216HW,2013-07-16 03:12:00,
2013-07-15 20:17:00,74.0,49.4,29.59,NNE,23,0.7,1.3,42,0.00,,,0.00,WUHU216HW,2013-07-16 03:17:00,
2013-07-15 20:23:00,73.8,49.2,29.59,NNE,23,0.4,1.3,42,0.00,,,0.00,WUHU216HW,2013-07-16 03:23:00,
2013-07-15 20:28:00,73.4,48.9,29.59,NE,45,0.0,0.7,42,0.00,,,0.00,WUHU216HW,2013-07-16 03:28:00,
2013-07-15 20:33:00,73.4,49.5,29.59,NNE,23,0.0,0.4,43,0.00,,,0.00,WUHU216HW,2013-07-16 03:33:00,
2013-07-15 20:38:00,73.1,49.1,29.59,NNE,23,0.0,0.4,43,0.00,,,0.00,WUHU216HW,2013-07-16 03:38:00,
2013-07-15 20:44:00,72.9,49.6,29.59,NNE,23,0.0,0.2,44,0.00,,,0.00,WUHU216HW,2013-07-16 03:44:00,
2013-07-15 20:49:00,72.7,49.4,29.59,NNE,23,0.0,0.0,44,0.00,,,0.00,WUHU216HW,2013-07-16 03:49:00,
2013-07-15 20:54:00,72.4,49.2,29.59,North,0,0.0,0.0,44,0.00,,,0.00,WUHU216HW,2013-07-16 03:54:00,
2013-07-15 20:59:00,72.2,49.0,29.59,North,0,0.2,0.2,44,0.00,,,0.00,WUHU216HW,2013-07-16 03:59:00,
2013-07-15 21:01:00,72.2,49.0,29.59,North,0,0.2,0.2,44,0.00,,,0.00,WUHU216HW,2013-07-16 04:01:00,
2013-07-15 21:06:00,71.8,49.2,29.59,North,0,0.0,0.2,45,0.00,,,0.00,WUHU216HW,2013-07-16 04:06:00,
2013-07-15 21:11:00,71.6,49.1,29.59,North,0,0.2,0.2,45,0.00,,,0.00,WUHU216HW,2013-07-16 04:11:00,
2013-07-15 21:16:00,71.5,48.9,29.59,North,0,0.0,0.2,45,0.00,,,0.00,WUHU216HW,2013-07-16 04:16:00,
2013-07-15 21:21:00,71.3,49.3,29.59,North,0,0.0,0.2,46,0.00,,,0.00,WUHU216HW,2013-07-16 04:21:00,
2013-07-15 21:26:00,71.1,49.1,29.59,North,0,0.0,0.2,46,0.00,,,0.00,WUHU216HW,2013-07-16 04:26:00,
2013-07-15 21:31:00,70.9,49.0,29.60,NNW,338,0.0,0.7,46,0.00,,,0.00,WUHU216HW,2013-07-16 04:31:00,
2013-07-15 21:36:00,70.6,48.7,29.60,NNW,338,0.0,0.7,46,0.00,,,0.00,WUHU216HW,2013-07-16 04:36:00,
2013-07-15 21:41:00,70.4,48.5,29.60,NNW,338,0.0,0.0,46,0.00,,,0.00,WUHU216HW,2013-07-16 04:41:00,
2013-07-15 21:46:00,70.4,48.5,29.60,NW,315,0.0,0.4,46,0.00,,,0.00,WUHU216HW,2013-07-16 04:46:00,
2013-07-15 21:51:00,70.2,48.3,29.60,NW,315,0.0,0.4,46,0.00,,,0.00,WUHU216HW,2013-07-16 04:51:00,
2013-07-15 21:56:00,69.8,48.6,29.60,NW,315,0.0,0.4,47,0.00,,,0.00,WUHU216HW,2013-07-16 04:56:00,
2013-07-15 22:01:00,69.8,48.6,29.60,NW,315,0.0,0.4,47,0.00,,,0.00,WUHU216HW,2013-07-16 05:01:00,
2013-07-15 22:06:00,69.7,48.4,29.60,NW,315,0.0,0.4,47,0.00,,,0.00,WUHU216HW,2013-07-16 05:06:00,
2013-07-15 22:11:00,69.3,48.2,29.60,NW,315,0.0,0.2,47,0.00,,,0.00,WUHU216HW,2013-07-16 05:11:00,
2013-07-15 22:16:00,68.9,47.8,29.60,NW,315,0.0,0.0,47,0.00,,,0.00,WUHU216HW,2013-07-16 05:16:00,
2013-07-15 22:21:00,68.8,47.1,29.60,NW,315,0.0,0.0,46,0.00,,,0.00,WUHU216HW,2013-07-16 05:21:00,
2013-07-15 22:26:00,68.4,47.4,29.60,NW,315,0.0,0.0,47,0.00,,,0.00,WUHU216HW,2013-07-16 05:26:00,
2013-07-15 22:31:00,68.0,47.0,29.60,NW,315,0.0,0.0,47,0.00,,,0.00,WUHU216HW,2013-07-16 05:31:00,
2013-07-15 22:36:00,67.9,47.4,29.60,NW,315,0.0,0.0,48,0.00,,,0.00,WUHU216HW,2013-07-16 05:36:00,
2013-07-15 22:41:00,67.7,47.3,29.60,NW,315,0.0,0.0,48,0.00,,,0.00,WUHU216HW,2013-07-16 05:41:00,
2013-07-15 22:46:00,67.5,47.1,29.60,NW,315,0.0,0.0,48,0.00,,,0.00,WUHU216HW,2013-07-16 05:46:00,
2013-07-15 22:51:00,67.1,47.3,29.60,NW,315,0.0,0.0,49,0.00,,,0.00,WUHU216HW,2013-07-16 05:51:00,
2013-07-15 22:56:00,67.0,47.3,29.60,NW,315,0.0,0.0,49,0.00,,,0.00,WUHU216HW,2013-07-16 05:56:00,
2013-07-15 23:01:00,66.6,47.5,29.60,NW,315,0.0,0.4,50,0.00,,,0.00,WUHU216HW,2013-07-16 06:01:00,
2013-07-15 23:06:00,66.6,47.5,29.60,NE,45,0.0,0.9,50,0.00,,,0.00,WUHU216HW,2013-07-16 06:06:00,
2013-07-15 23:11:00,66.4,47.4,29.60,NE,45,0.0,0.9,50,0.00,,,0.00,WUHU216HW,2013-07-16 06:11:00,
2013-07-15 23:16:00,66.2,47.2,29.60,NE,45,0.0,0.0,50,0.00,,,0.00,WUHU216HW,2013-07-16 06:16:00,
2013-07-15 23:21:00,66.1,47.0,29.60,NE,45,0.0,0.0,50,0.00,,,0.00,WUHU216HW,2013-07-16 06:21:00,
2013-07-15 23:26:00,65.9,46.8,29.60,NE,45,0.0,0.0,50,0.00,,,0.00,WUHU216HW,2013-07-16 06:26:00,
2013-07-15 23:31:00,65.7,47.1,29.59,NE,45,0.0,0.0,51,0.00,,,0.00,WUHU216HW,2013-07-16 06:31:00,
2013-07-15 23:36:00,65.5,46.9,29.59,NE,45,0.0,0.0,51,0.00,,,0.00,WUHU216HW,2013-07-16 06:36:00,
2013-07-15 23:41:00,65.5,47.4,29.59,NE,45,0.0,0.0,52,0.00,,,0.00,WUHU216HW,2013-07-16 06:41:00,
2013-07-15 23:46:00,65.3,47.3,29.59,NE,45,0.0,0.0,52,0.00,,,0.00,WUHU216HW,2013-07-16 06:46:00,
2013-07-15 23:51:00,65.0,46.9,29.59,NE,45,0.0,0.0,52,0.00,,,0.00,WUHU216HW,2013-07-16 06:51:00,
2013-07-15 23:56:00,64.8,46.7,29.59,NE,45,0.0,0.0,52,0.00,,,0.00,WUHU216HW,2013-07-16 06:56:00,